Weather Roundup
Issued by NWS Chicago, IL

Home | Current Version | Previous Version | Text Only | Print | Product List | Glossary Off
Versions: 1 2 3 4 5 6 7 8 9 10 11 12 13 14 15 16 17 18 19 20 21 22 23 24 25 26 27 28 29 30 31 32 33 34 35 36 37 38 39 40 41 42 43 44 45 46 47 48 49 50

000
NZUS59 KLOT 282309
HRRLOT

CHICAGO AREA WEATHER ROUNDUP
NATIONAL WEATHER SERVICE CHICAGO/ROMEOVILLE IL
600 PM CDT SAT MAY 28 2016

NOTE: "FAIR" INDICATES FEW OR NO CLOUDS BELOW 12,000 FEET WITH NO
SIGNIFICANT WEATHER AND/OR OBSTRUCTIONS TO VISIBILITY.

* THESE STATIONS ARE NOT UNDER NWS QUALITY CONTROL. THEY ALSO MAY NOT
  REPORT WEATHER SUCH AS PRECIPITATION OR FOG.

ILZ005-006-012>014-019>023-290000-
NORTHEAST ILLINOIS

CITY           SKY/WX    TMP DP  RH WIND       PRES   REMARKS
OHARE          MOSUNNY   81  66  60 S20G28    29.87F HX  83
MIDWAY         MOSUNNY   83  63  50 S20G31    29.88F HX  84
AURORA         MOSUNNY   84  64  50 S18G28    29.86F HX  85
LANSING*       MOSUNNY   81  63  54 S16       29.91S HX  82
JOLIET*        MOSUNNY   83  66  56 S16G24    29.88F HX  85
WAUKEGAN       SUNNY     79  64  60 SE12G26   29.86F HX  81
DUPAGE AIRPORT MOSUNNY   82  64  54 S21G30    29.86F HX  83
WHEELING       MOSUNNY   80  65  59 S22G29    29.87F HX  82
KANKAKEE*      SUNNY     82  65  55 S18G26    29.92S HX  84
MORRIS*        MOSUNNY   82  66  59 S22G30    29.86F HX  84
LEWIS AIRPORT* MOSUNNY   83  62  48 S22G28    29.88S HX  84
$$

WIZ051-052-058>065-066-070>072-290000-
SOUTHEAST WISCONSIN

CITY           SKY/WX    TMP DP  RH WIND       PRES   REMARKS
MILWAUKEE      MOSUNNY   78  62  57 SE12G21   29.85F HX  80
KENOSHA*       MOSUNNY   81  64  56 S14G24    29.86F HX  82
RACINE*        SUNNY     73  60  63 S13       29.88F
BURLINGTON     MOSUNNY   81  61  50 S12G22    29.85S HX  82
WAUKESHA       MOSUNNY   79  61  53 S15G25    29.86S HX  80
WEST BEND      MOSUNNY   79  61  53 S15G24    29.84S HX  80
$$

INZ001>003-010>013-019-020-290000-
NORTHWEST INDIANA

CITY           SKY/WX    TMP DP  RH WIND       PRES   REMARKS
GARY*          MOSUNNY   82  70  65 S13G26    29.91F HX  86
MICHIGAN CITY* NOT AVBL
RENSSELAER*    NOT AVBL
VALPARAISO     SUNNY     83  61  47 S20G28    29.94S HX  83
$$

LMZ740>746-290000-
SOUTHERN LAKE MICHIGAN

STATION/POSITION TIME  SKY/WX   TEMP WIND        PRES    VSBY
                                AIR  DIR/SP/G
                 (UTC)          (F)  (DEG/KT/KT) (MB)    (MI)
HARRISON CRIB    2200            77  190/ 21/ 22   N/A
BURNHAM HARBOR   2300            80  180/ 16/ 20   N/A
CALUMET HARBOR   2200                190/ 14/ 23   N/A
BURNS HARBOR     2226            81  190/ 17/ 26 1013.2F
MICHIGAN CITY    2200            80  170/ 14/ 19   N/A
$$

ABBREVIATIONS USED IN REMARKS
   TC - TEMPERATURE IN CELSIUS
  WCI - WIND CHILL INDEX
   HX - HEAT INDEX
  VSB - VISIBILITY
$$




USA.gov is the U.S. government's official web portal to all federal, state and local government web resources and services.